Timeline UpdatesTrip UpdatesNews PostsPvt Posts♥♥Travel TipsAdmin PostsConv PostsFollowed PostsChat RequestsBlog PostsPNR Posts

Disclaimer
Search
 
 
Sat Nov 1, 2014 03:47:43 ISTHomeTrainsΣChainsAtlasPNRForumGalleryNewsFAQTripsMembersLoginFeedback
No Recent News for this Train
Other Trains in the News **new
Latest...
.
Fri Jun 22, 2012 (10:25PM)
⇐ Return Journey: Train# 54811

54812/Jodhpur-Bhopal Passenger

Time-Table HAS CHANGED.
Sep 02 2014 (12:23AM)
Change Departure Station:
Change Arrival Station:
Post a Train Travel TipPost a Train Travel Tip **new
Post a Comment/Question/Picture/VideoPost a Comment/Question/Picture/Video
Pantry/Catering
✕ NO Pantry Car
✕ NO Catering
Loco/Rake Reversals
SWM/Sawai Madhopur Junction (4); KOTA/Kota Junction (5);
RSA - Rake Sharing
RSA with 54821/22 bhildi jodhpur passenger
Rake/Coach Composition
LOCO, SLR, GS, GS, GS, S-1, S-2, S-3, GS, GS, GS, GS, GS, GSLRD, STORE DELIVERY VAN
Loco
WDM 2A upto Bina, Bina to Bhopal: WAM 4
News    PNR    Forum    Time-Table    Availability    Fare Chart    Map    Arr/Dep History    Trips    Gallery    ΣChains    X/O    Timeline    
Travel Time: 5h 33m    27 halts    Distance: 248 km    Avg Speed: 44 km/hr
Type: Passenger
Zone: NWR/North Western
Departs @ 08:05
Platform# ???
SMTWTFS
Jodhpur Junction/JU 
Arrives @ 13:38
Platform# ???
SMTWTFS
Sambhar Lake/SBR 

27 halts. 28 intermediate Stations between Jodhpur Junction and Sambhar Lake

Show ALL intermediate Stations  Show Old Time-Table

#TrkCodeStation NameX/OArrivesAvgDepartsAvgHaltPFDay#KmSpeedElevZoneAddress
1|=-|JUJodhpur Junction (5)»  -08:05---10.028241mNWRJodhpur, Rajasthan
2|--|RKBRaikabagh Palace Junction (2)X  08:10-08:12-2m--12.360237mNWRJodhpur, Rajasthan
3|--|BNOBanar  08:24-08:26-2m--114.255213mNWRBanar, Rajasthan
4|--|JWLJajiwalX  08:35-08:37-2m--122.567228mNWRJodhpur, Rajasthan
5|--|AASAsranada  08:45-08:47-2m--131.361251mNWRState Highway 58, Rajasthan
6|--|KSWKheri Salwa  08:56-08:58-2m--140.464269mNWRJajiwal, Rajasthan
7|--|PPRPipar Road JunctionX  09:04-09:06-2m--146.957272mNWRState Highway 58, Rajasthan
8|--|SWFSathin Road  09:15-09:17-2m--155.562284mNWRUMED, Rajasthan
9|--|UMEDUmedX  09:27-09:29-2m--165.856308mNWRJodhpur, Rajasthan
10|--|KXGKharia Khangarh  09:40-09:42-2m--176.054310mNWRKharia Khangar, Rajasthan
11|--|GOTNGotan (3)  09:50-09:52-2m--183.159323mNWRGotan, Rajasthan
12|--|JOMJogi Magra (1)X  10:02-10:04-2m1192.924335mNWRNagaur, Rajasthan
13|--|MTDMerta Road Junction (4)  10:30-10:35-5m--1103.3116322mNWRPhalodi, Rajasthan
14|--|KQWKheduli (1)  10:43-10:45-2m--1118.717307mNWRRen, Rajasthan
15|--|RENRen  10:52-10:54-2m--1120.763307mNWRNagaur, Rajasthan
16|--|JACJalsu  11:07-11:09-2m--1134.448321mNWRNagaur, Rajasthan
17|--|JACNJalsu Nanak  11:16-11:18-2m--1140.049331mNWRREN, Rajasthan
18|--|DNADegana Junction (4)  11:27-11:30-3m--1147.382339mNWRDegana, Rajasthan
19|--|GCHGachhipura  11:41-11:43-2m--1162.468362mNWRNagaur, Rajasthan
20|--|BSRLBesroli  11:53-11:55-2m--1173.771378mNWRNagaur, Rajasthan
21|--|BOWBorawar  12:05-12:07-2m--1185.639403mNWRBesrol, Rajasthan
22|--|MKNMakrana Junction (2)  12:15-12:17-2m--1190.857423mNWRMakrana, Rajasthan
23|--|KMNCKuchaman CityX  12:32-12:34-2m--1204.941404mNWRPalari, Rajasthan
24|--|THMRThathana Mithri  12:41-12:43-2m--1209.751388mNWRNawa City, Rajasthan
25|--|NYKNaya KharadiaX  12:48-12:50-2m--1214.036375mNWRMakrana, Rajasthan
26|--|NACNawa City  13:01-13:03-2m--1220.650390mNWRNawa, Rajasthan
27|--|GVMRGovindi Marwar  13:14-13:16-2m--1229.864373mNWRSambhar Lake, Rajasthan
28|--|GAGudha (1)X  13:26-13:28-2m11240.546365mNWRPhulera, Rajasthan
29|--|SBRSambhar Lake•O  13:38-13:40-2m--1248.25368mNWRSambhar, Rajasthan
30|--|FLPhulera Junction (5)X  15:00-15:05-5m--1255.374386mNWRPhulera, Rajasthan
31|==|HDAHirnoda  15:12-15:13-1m--1264.040400mNWRJaipur, Rajasthan
32|==|DHNDDhinda  15:19-15:20-1m--1268.048386mNWRMDR 59, Rajasthan
33|==|JOBAsalpur JobnerX  15:27-15:28-1m--1273.756379mNWRJaipur, Rajasthan
34|==|BOBSBobas  15:36-15:37-1m--1281.152396mNWRJaipur, Rajasthan
35|==|SHNXSheo Singh Pura  15:45-15:46-1m--1288.038411mNWRJaipur, Rajasthan
36|==|DNKDhanakya  15:52-15:53-1m--1291.846418mNWRJaipur, Rajasthan
37|==|BDYKBindayakaX  15:59-16:00-1m--1296.452411mNWRJaipur, Rajasthan
38|==|KKUKanakpuraXO  16:06-16:07-1m--1301.516429mNWRJaipur, Rajasthan
39|==|JPJaipur Junction (7)X  16:45 16:40-17:45 16:50-60 10m41310.445434mNWRJaipur, Rajasthan
40|--|DPADurgapura (3)XO  17:54 17:00-17:55 17:53-1 53m11317.842400mNWRJaipur, Rajasthan
41|--|SNGNSanganer  18:04 18:00-18:05 18:02-1 2m11322.777383mNWRJaipur, Rajasthan
42|--|SASShivdaspura Padampura  18:20 18:15-18:21 18:17-1 2m11339.369335mNWRJaipur, Rajasthan
43|--|CKSChaksuX  18:32 18:29-18:33-1 4m--1353.152319mNWRDist. Jaipur, Rajasthan
44|--|CHNNChannani  18:46 18:45-18:47-1 2m--1363.578326mNWRChaksu, Rajasthan
45|--|BNLWBansthali Niwai (2)  18:58 18:57-18:59-1 2m--1376.568315mNWRMaharajpura, Rajasthan
46|--|SRASSiras  19:13-19:14-1m--1392.261270mNWRIsarda, Rajasthan
47|--|ISAIsarda  19:24-19:25-1m--1402.457271mNWRMDR 111, Rajasthan
48|--|SURLSureli  19:34-19:35-1m--1411.0110258mNWRDevpura, Rajasthan
49|--|CKBChauth ka Barwara (1)X  19:44 19:40-19:45-1 5m11420.227272mNWRSawai Madhopur, Rajasthan
50|--|DPZDevpura (1)X  20:11 20:10-20:12-1 2m11431.250271mNWRSawai Madhopur, Rajasthan
51|--|SWMSawai Madhopur Junction (4)O↵¶20:25-20:40-15m31442.149266mWCRSawai Madhopur, Rajasthan
52/==/RWJRawania DungarX  20:59-21:00-1m--1457.651266mWCRSawai Madhopur, Rajasthan
53/==/AMLIAmli  21:09-21:10-1m--1465.287233mWCRSawai Madhopur, Rajasthan
54/==/IDGIndargarh Sumerganj Mandi (2)  21:19-21:20-1m--1478.373247mWCRIndargarh, Rajasthan
55/==/LKELakheri (3)O  21:29-21:30-1m--1489.367228mWCRBundi, Rajasthan
56/==/KPZKaprenX  21:54-21:55-1m--1516.367234mWCRKota - Lalsot Mega Highway, Rajasthan
57/==/KPTNKeshorai PatanO  22:13-22:14-1m--1536.426243mWCRSH 33, Rajasthan
58/==/KOTAKota Junction (5)22:45-22:55-10m41549.962256mWCRKota, Rajasthan
59/--/ATHAntah  23:38-23:40-2m--1594.634246mWCRAntah, Rajasthan
60/--/BAZBaranX  00:18-00:20-2m--2616.243261mWCRBaran, Rajasthan
61/--/ATRUAtru (1)  01:01-01:03-2m12645.460288mWCRAtru, Rajasthan
62/--/SYLSalpura  01:17-01:18-1m--2659.571311mWCRKawari, Rajasthan
63/--/CAGChhabra Gugor  01:31-01:33-2m--2675.032342mWCRBaran, Rajasthan
64/-=%RTARuthiyai Junction (2)  02:45-02:50-5m--2713.554414mWCRRuthiyai, Madhya Pradesh
65%==%MUGAMahugaraX  03:05-03:07-2m--2727.125501mWCRRuthiyai, Madhya Pradesh
66%=-/GUNAGuna Junction (3)X  03:25-03:35-10m--2734.537477mWCRJn Point Indore/Gwalior/Bina/Kota, Madhya Pradesh
67/--/PGAPagara  03:57-03:59-2m--2747.946494mWCRGuna, Madhya Pradesh
68/--/SHDRShadhoragaon  04:19-04:21-2m--2763.361504mWCRGuna, Madhya Pradesh
69/--/RIKARatikheda  04:29-04:31-2m--2771.448526mWCRGuna, Madhya Pradesh
70/--/ASKNAshok Nagar (2)  04:40-04:42-2m--2778.654502mWCRAshoknagar, Madhya Pradesh
71/--/ORROrr  04:56-04:58-2m--2791.359450mWCRAshoknagar, Madhya Pradesh
72/--/PIAPipraigaon (3)  05:18 05:12-05:20 05:14-2m22805.059451mWCRAshoknagar, Madhya Pradesh
73/--/GVBGuneru Bamori (2)  05:33 05:25-05:35 05:27-2m--2815.963427mWCRAshoknagar, Madhya Pradesh
74/--/MNVMungaoli (2)X  05:43 05:35-05:45 05:37-2m--2824.353403mWCRAshoknagar, Madhya Pradesh
75/--/KXBKanjiya  05:55 05:46-05:57 05:48-2m--2832.382390mWCRMungaoli, Madhya Pradesh
76/--/SRKISemarkheri  06:03 05:54-06:05 05:56-2m--2840.551412mWCRBina, Madhya Pradesh
77/--/MDVKMahadeokhedi  06:13 06:02-06:15 06:04-2m--2845.613423mWCRBina, Madhya Pradesh
78/--/BINABina Junction (5)X  06:40-06:50-10m22853.370414mWCRJn Pt - KATNI/GUNA/ BPL/JHS, Madhya Pradesh
79/==/KIKAKurwai Kethora (2)  06:58-07:00-2m--2862.653407mWCRBina, Madhya Pradesh
80/==/MABAMandi Bamora (3)X  07:09-07:11-2m22870.666413mWCRState Highway 14, Madhya Pradesh
81/==/KAHKalhar (3)  07:19-07:21-2m--2879.465409mWCRSagar, Madhya Pradesh
82/==/BETBareth (4)XO  07:30-07:32-2m--2889.225418mWCRState Highway 19, Madhya Pradesh
83/==/BAQGanj Basoda (4)O  07:56-07:58-2m22899.166 WCRVidisha, Madhya Pradesh
84/==/PAIPabai (3)XO  08:06-08:08-2m--2907.872 WCRVidisha, Madhya Pradesh
85/==/GLGGulabhGanj (3)XO  08:16-08:18-2m22917.456 WCRVidisha, Madhya Pradesh
86/==/SUMRSumer (3)X  08:26-08:28-2m--2924.940 WCRVidisha, Madhya Pradesh
87/==/BHSVidisha (3)XO  09:09 08:48-09:11 08:50-2m22938.423 WCRVidisha, Madhya Pradesh
88/==/SCISanchi (2)X  09:23 09:15-09:25 09:17-2m12947.855428mWCRRaisen, Madhya Pradesh
89/==/SMTSalamatpur (3)XO  09:33 09:25-09:35 09:27-2m12955.131 WCRRaisen, Madhya Pradesh
90/==/DWGDewanGanj (3)X  09:43 09:45-09:45 09:47-2m22964.459 WCRRaisen, Madhya Pradesh
91/==/BVBBhadbhadaghat (2)X  09:56-09:58-2m12973.230474mWCRVidisha Road Bhopal, Madhya Pradesh
92/==/SUWSukhisewaniyan (3)XO  10:08 10:13-10:10 10:15-2m22980.719508mWCRBhopal, Madhya Pradesh
93/==/BPLBhopal Junction (6)  10:50--52991.9-497mWCRBhopal, Madhya Pradesh
Scroll to Top
Scroll to Bottom